Anoka County, MN

6:20 AM CDT on July 28, 2017 (GMT -0500)
Anoka County / Blaine Airport

Weather History for KANE - February, 2013

Change the Weather History Date:

Thursday, February 14, 2013

  Actual Average Record
Temperature  
Mean Temperature 24 °F -  
Max Temperature 33 °F 27 °F 46 °F (2002)
Min Temperature 14 °F 12 °F -5 °F (2007)
Degree Days  
Heating Degree Days 42    
Moisture  
Dew Point 20 °F    
Average Humidity 80    
Maximum Humidity 100    
Minimum Humidity 40    
Precipitation  
Precipitation 0.00 in - - ()
Sea Level Pressure  
Sea Level Pressure 29.85 in    
Wind  
Wind Speed 9 mph (NW)    
Max Wind Speed 21 mph    
Max Gust Speed 25 mph    
Visibility 8 miles    
Events Snow    
Averages and records for this station are not official NWS values.
T = Trace of Precipitation, MM = Missing Value Source: NWS Daily Summary

Daily Weather History Graph

Daily Weather History Graph

Search for Another Location

Airport or City:

Trip Planner

Search our weather history database for the weather conditions in past years. The results will help you decide how hot, cold, wet, or windy it might be!

Date:

Astronomy

Feb. 14, 2013 Rise Set
Actual Time 7:15 AM CST 5:39 PM CST
Civil Twilight 6:44 AM CST 6:09 PM CST
Nautical Twilight 6:10 AM CST 6:44 PM CST
Astronomical Twilight 5:36 AM CST 7:18 PM CST
Moon 9:01 AM CST (2/14) 11:00 PM CST (2/14)
Length of Visible Light 11h 25m
Length of Day
10h 24m
Waxing Crescent, 22% of the Moon is Illuminated
Feb 14
Waxing Crescent
Feb 17
First Quarter
Feb 25
Full
Mar 4
Last Quarter
Mar 11
New

Hourly Weather History & Observations

Time (CST) Temp. Windchill Dew Point Humidity Pressure Visibility Wind Dir Wind Speed Gust Speed Precip Events Conditions
12:14 AM 33.8 °F 27.0 °F 33.8 °F 100% 29.58 in 1.8 mi North 8.1 mph - N/A   Overcast
12:34 AM 33.8 °F 25.3 °F 33.8 °F 100% 29.59 in 1.8 mi North 11.5 mph - N/A Snow Light Snow
12:54 AM 33.8 °F 25.8 °F 33.8 °F 100% 29.60 in 2.0 mi North 10.4 mph - N/A Snow Light Snow
1:14 AM 33.8 °F 25.8 °F 32.0 °F 93% 29.61 in 2.0 mi North 10.4 mph - N/A Snow Light Snow
1:33 AM 33.8 °F 24.3 °F 32.0 °F 93% 29.61 in 2.0 mi North 13.8 mph 18.4 mph N/A Snow Light Snow
1:54 AM 33.8 °F 24.3 °F 32.0 °F 93% 29.63 in 2.0 mi North 13.8 mph - N/A Snow Light Snow
2:14 AM 32.0 °F 22.1 °F 30.2 °F 93% 29.64 in 2.0 mi North 13.8 mph 18.4 mph N/A Snow Light Snow
2:33 AM 32.0 °F 24.2 °F 30.2 °F 93% 29.65 in 2.5 mi North 9.2 mph 18.4 mph N/A Snow Light Snow
2:54 AM 30.2 °F 21.9 °F 30.2 °F 100% 29.66 in 5.0 mi North 9.2 mph - N/A   Overcast
3:14 AM 30.2 °F 24.3 °F 28.4 °F 93% 29.67 in 10.0 mi North 5.8 mph - N/A   Overcast
3:33 AM 30.2 °F 22.6 °F 28.4 °F 93% 29.68 in 10.0 mi NNW 8.1 mph - N/A   Overcast
3:54 AM 30.2 °F 23.4 °F 28.4 °F 93% 29.69 in 10.0 mi NW 6.9 mph - N/A   Overcast
4:14 AM 30.2 °F 23.4 °F 28.4 °F 93% 29.70 in 10.0 mi NW 6.9 mph - N/A   Mostly Cloudy
4:33 AM 28.4 °F 21.2 °F 28.4 °F 100% 29.71 in 10.0 mi NW 6.9 mph - N/A   Scattered Clouds
4:54 AM 28.4 °F 21.2 °F 26.6 °F 93% 29.72 in 10.0 mi NW 6.9 mph - N/A   Clear
5:14 AM 28.4 °F 22.2 °F 26.6 °F 93% 29.73 in 10.0 mi NW 5.8 mph - N/A   Clear
5:33 AM 28.4 °F 21.2 °F 26.6 °F 93% 29.74 in 10.0 mi NW 6.9 mph - N/A   Clear
5:54 AM 26.6 °F 21.2 °F 26.6 °F 100% 29.74 in 10.0 mi WNW 4.6 mph - N/A   Clear
6:14 AM 24.8 °F 20.5 °F 24.8 °F 100% 29.75 in 10.0 mi West 3.5 mph - N/A   Scattered Clouds
6:34 AM 24.8 °F 17.9 °F 24.8 °F 100% 29.76 in 10.0 mi West 5.8 mph - N/A   Mostly Cloudy
6:45 AM 24.8 °F 20.5 °F 24.8 °F 100% 29.77 in 10.0 mi West 3.5 mph - N/A   Scattered Clouds
6:54 AM 24.8 °F 20.5 °F 24.8 °F 100% 29.77 in 7.0 mi West 3.5 mph - N/A   Scattered Clouds
8:50 AM 26.6 °F 21.2 °F 24.8 °F 93% 29.81 in 10.0 mi NW 4.6 mph - N/A   Mostly Cloudy
9:55 AM 28.4 °F 23.3 °F 24.8 °F 86% 29.83 in 10.0 mi NW 4.6 mph - N/A   Mostly Cloudy
10:50 AM 28.4 °F 20.4 °F 26.6 °F 93% 29.84 in 10.0 mi NW 8.1 mph - N/A   Mostly Cloudy
11:45 AM 28.4 °F 19.7 °F 24.8 °F 86% 29.87 in 10.0 mi NNW 9.2 mph - N/A   Mostly Cloudy
12:45 PM 30.2 °F 21.3 °F 24.8 °F 80% 29.88 in 10.0 mi WNW 10.4 mph - N/A   Mostly Cloudy
1:45 PM 30.2 °F 21.3 °F 21.2 °F 69% 29.89 in 10.0 mi WNW 10.4 mph - N/A   Scattered Clouds
2:50 PM 28.4 °F 15.1 °F 12.2 °F 51% 29.92 in 10.0 mi NW 20.7 mph 25.3 mph N/A   Mostly Cloudy
3:45 PM 26.6 °F 12.7 °F 8.6 °F 47% 29.96 in 10.0 mi NW 20.7 mph 25.3 mph N/A   Mostly Cloudy
5:45 PM 24.8 °F 13.4 °F 3.2 °F 40% 30.04 in 10.0 mi NW 12.7 mph - N/A   Mostly Cloudy
6:45 PM 24.8 °F 12.9 °F 3.2 °F 40% 30.17 in 10.0 mi NNW 13.8 mph - N/A   Mostly Cloudy
7:50 PM 21.2 °F 12.6 °F 6.8 °F 54% 30.09 in 10.0 mi WNW 6.9 mph - N/A   Mostly Cloudy
8:45 PM 19.4 °F 11.5 °F 6.8 °F 58% 30.11 in 10.0 mi WNW 5.8 mph - N/A   Scattered Clouds
9:14 PM 19.4 °F 9.5 °F 6.8 °F 58% 30.13 in 10.0 mi NW 8.1 mph - N/A   Clear
9:34 PM 19.4 °F 9.5 °F 5.0 °F 54% 30.14 in 10.0 mi WNW 8.1 mph - N/A   Clear
9:54 PM 19.4 °F 10.4 °F 5.0 °F 54% 30.14 in 10.0 mi NW 6.9 mph - N/A   Clear
10:14 PM 17.6 °F 8.2 °F 5.0 °F 58% 30.14 in 10.0 mi NW 6.9 mph - N/A   Clear
10:34 PM 15.8 °F 7.2 °F 3.2 °F 58% 30.14 in 10.0 mi WNW 5.8 mph - N/A   Clear
10:54 PM 15.8 °F 6.1 °F 3.2 °F 58% 30.15 in 10.0 mi West 6.9 mph - N/A   Clear
11:14 PM 14.0 °F 2.9 °F 3.2 °F 62% 30.15 in 10.0 mi West 8.1 mph - N/A   Clear
11:34 PM 15.8 °F 3.4 °F 5.0 °F 62% 30.15 in 10.0 mi WNW 10.4 mph - N/A   Clear
11:54 PM 15.8 °F 4.2 °F 5.0 °F 62% 30.15 in 10.0 mi WNW 9.2 mph - N/A   Scattered Clouds